| time (UTC) | temp C | wind direction | speed KPH | gust KPH | rain 1hr cm | rain 24hr cm | rain mn cm | humidity % | barometer mb |
| 20260505162627 | 23 | 23 | 95.0 | 6.4 | 0.18 | 0.18 | 0.18 | 90 | 1014.9 |
| 20260505161847 | 50 | 23 | 95.0 | 11.3 | 0.00 | 0.00 | 0.00 | 90 | |
| 20260505161334 | 24 | 158 | 6.4 | 11.3 | 0.00 | 0.00 | 0.00 | 90 | |
| 20260505151339 | 23 | 23 | 3.2 | 6.4 | 0.00 | 0.00 | 0.00 | 93 | 1012.5 |
| 20260505150830 | 23 | 23 | 1.6 | 6.4 | 0.00 | 0.00 | 0.00 | 92 | 1012.8 |
| 20260505150319 | 23 | 23 | 3.2 | 6.4 | 0.00 | 0.00 | 0.00 | 92 | 1012.7 |
| 20260505140628 | 23 | 0 | 4.8 | 12.9 | 0.00 | 0.00 | 0.00 | 90 | 1013.1 |
| 20260505140118 | 22 | 0 | 4.8 | 9.7 | 0.00 | 0.00 | 0.00 | 91 | 1013.2 |
| 20260505124857 | 21 | 45 | 8.0 | 12.9 | 0.00 | 0.00 | 0.00 | 95 | 1012.9 |
| 20260505124347 | 21 | 45 | 3.2 | 11.3 | 0.00 | 0.00 | 0.00 | 96 | 1012.8 |
| 20260505123326 | 20 | 113 | 4.8 | 12.9 | 0.00 | 0.00 | 0.00 | 97 | 1012.5 |
| 20260505122306 | 20 | 90 | 4.8 | 9.7 | 0.00 | 0.00 | 0.00 | 97 | 1012.2 |
| 20260505121756 | 20 | 45 | 3.2 | 12.9 | 0.00 | 0.00 | 0.00 | 97 | 1012.5 |
| 20260505121246 | 20 | 23 | 6.4 | 12.9 | 0.00 | 0.00 | 0.00 | 97 | 1012.5 |
| 20260505120735 | 20 | 23 | 3.2 | 11.3 | 0.00 | 0.00 | 0.00 | 98 | 1012.4 |
| 20260505120226 | 20 | 23 | 3.2 | 9.7 | 0.00 | 0.00 | 0.00 | 98 | 1012.4 |
| 20260505115819 | 19 | 113 | 3.2 | 9.7 | 0.00 | 0.00 | 0.00 | 98 | 1012.4 |
| 20260505115205 | 19 | 23 | 1.6 | 9.7 | 0.00 | 0.00 | 0.00 | 98 | 1012.3 |
| 20260505114656 | 19 | 45 | 1.6 | 6.4 | 0.00 | 0.00 | 0.00 | 98 | 1012.5 |
| 20260505114145 | 19 | 45 | 3.2 | 6.4 | 0.00 | 0.00 | 0.00 | 98 | 1012.5 |
| 20260505113634 | 19 | 45 | 3.2 | 6.4 | 0.00 | 0.00 | 0.00 | 98 | 1012.4 |
| 20260505113125 | 19 | 90 | 3.2 | 9.7 | 0.00 | 0.00 | 0.00 | 98 | 1012.3 |
| 20260505112615 | 19 | 90 | 3.2 | 9.7 | 0.00 | 0.00 | 0.00 | 98 | 1012.3 |
| 20260505112105 | 19 | 0 | 1.6 | 6.4 | 0.00 | 0.00 | 0.00 | 98 | 1012.1 |
| 20260505111554 | 19 | 90 | 3.2 | 6.4 | 0.00 | 0.00 | 0.00 | 98 | 1012.1 |
| 20260505111045 | 18 | 45 | 1.6 | 6.4 | 0.00 | 0.00 | 0.00 | 98 | 1012.1 |
| 20260505110536 | 18 | 68 | 3.2 | 6.4 | 0.00 | 0.00 | 0.00 | 98 | 1012.1 |
| 20260505101353 | 18 | 0 | 3.2 | 9.7 | 0.00 | 0.00 | 0.00 | 98 | 1011.5 |
| 20260505100333 | 18 | 23 | 1.6 | 9.7 | 0.00 | 0.00 | 0.00 | 98 | 1011.6 |
| 20260505095823 | 18 | 90 | 3.2 | 9.7 | 0.00 | 0.00 | 0.00 | 98 | 1011.6 |
| 20260505095312 | 18 | 45 | 1.6 | 9.7 | 0.00 | 0.00 | 0.00 | 98 | 1011.5 |
| 20260505094803 | 18 | 90 | 1.6 | 9.7 | 0.00 | 0.00 | 0.00 | 98 | 1011.3 |
| 20260505094253 | 18 | 68 | 3.2 | 9.7 | 0.00 | 0.00 | 0.00 | 98 | 1011.6 |
| 20260505093743 | 18 | 45 | 3.2 | 9.7 | 0.00 | 0.00 | 0.00 | 98 | 1011.3 |
| 20260505093232 | 18 | 68 | 1.6 | 9.7 | 0.00 | 0.00 | 0.00 | 98 | 1011.1 |
| 20260505092722 | 18 | 23 | 0.0 | 9.7 | 0.00 | 0.00 | 0.00 | 98 | 1011.2 |
| 20260505091702 | 18 | 113 | 3.2 | 6.4 | 0.00 | 0.00 | 0.00 | 98 | 1011.3 |
| 20260505091152 | 18 | 68 | 3.2 | 6.4 | 0.00 | 0.00 | 0.00 | 98 | 1011.1 |
| 20260505090642 | 18 | 68 | 1.6 | 6.4 | 0.00 | 0.00 | 0.00 | 98 | 1011.2 |
| 20260505090131 | 18 | 45 | 1.6 | 6.4 | 0.00 | 0.00 | 0.00 | 98 | 1011.0 |
| 20260505085621 | 18 | 23 | 3.2 | 9.7 | 0.00 | 0.00 | 0.00 | 98 | 1011.1 |
| 20260505084601 | 18 | 113 | 3.2 | 6.4 | 0.00 | 0.00 | 0.00 | 98 | 1011.1 |
| 20260505084051 | 18 | 45 | 3.2 | 9.7 | 0.00 | 0.00 | 0.00 | 98 | 1011.1 |
| 20260505083542 | 18 | 68 | 1.6 | 9.7 | 0.00 | 0.00 | 0.00 | 97 | 1011.1 |
| 20260505083034 | 18 | 0 | 1.6 | 9.7 | 0.00 | 0.00 | 0.00 | 97 | 1011.2 |
| 20260505082521 | 18 | 90 | 4.8 | 9.7 | 0.00 | 0.00 | 0.00 | 97 | 1011.1 |
| 20260505082010 | 18 | 0 | 3.2 | 9.7 | 0.00 | 0.00 | 0.00 | 97 | 1011.4 |
| 20260505080950 | 18 | 68 | 3.2 | 11.3 | 0.00 | 0.00 | 0.00 | 97 | 1011.1 |
| 20260505080440 | 18 | 45 | 1.6 | 11.3 | 0.00 | 0.00 | 0.00 | 97 | 1011.1 |
| 20260505075930 | 18 | 45 | 3.2 | 9.7 | 0.00 | 0.00 | 0.00 | 97 | 1010.9 |
| 20260505075420 | 18 | 45 | 3.2 | 6.4 | 0.00 | 0.00 | 0.00 | 97 | 1011.0 |
| 20260505074909 | 18 | 45 | 3.2 | 6.4 | 0.00 | 0.00 | 0.00 | 97 | 1011.2 |
| 20260505074400 | 18 | 90 | 3.2 | 6.4 | 0.00 | 0.00 | 0.00 | 97 | 1011.2 |
| 20260505073850 | 18 | 90 | 3.2 | 6.4 | 0.00 | 0.00 | 0.00 | 97 | 1011.1 |
| 20260505073339 | 18 | 23 | 3.2 | 9.7 | 0.00 | 0.00 | 0.00 | 97 | 1011.2 |
| 20260505072829 | 18 | 45 | 1.6 | 9.7 | 0.00 | 0.00 | 0.00 | 97 | 1011.0 |
| 20260505071810 | 18 | 23 | 3.2 | 6.4 | 0.00 | 0.00 | 0.00 | 97 | 1011.3 |
| 20260505071259 | 18 | 90 | 3.2 | 6.4 | 0.00 | 0.00 | 0.00 | 97 | 1011.5 |
| 20260505070749 | 18 | 0 | 3.2 | 6.4 | 0.00 | 0.00 | 0.00 | 96 | 1011.4 |
| 20260505070239 | 18 | 45 | 3.2 | 6.4 | 0.00 | 0.00 | 0.00 | 96 | 1011.5 |
| 20260505065729 | 18 | 23 | 3.2 | 9.7 | 0.00 | 0.00 | 0.00 | 96 | 1011.2 |
| 20260505065219 | 18 | 23 | 4.8 | 9.7 | 0.00 | 0.00 | 0.00 | 96 | 1011.6 |
| 20260505064159 | 18 | 68 | 3.2 | 6.4 | 0.00 | 0.00 | 0.00 | 96 | 1011.4 |
| 20260505063139 | 18 | 135 | 3.2 | 11.3 | 0.00 | 0.00 | 0.00 | 96 | 1011.2 |
| 20260505062628 | 18 | 113 | 1.6 | 11.3 | 0.00 | 0.00 | 0.00 | 96 | 1011.2 |
| 20260505062119 | 18 | 68 | 1.6 | 6.4 | 0.00 | 0.00 | 0.00 | 96 | 1011.5 |
| 20260505061608 | 18 | 68 | 1.6 | 6.4 | 0.00 | 0.00 | 0.00 | 96 | 1011.6 |
| 20260505061058 | 18 | 45 | 0.0 | 6.4 | 0.00 | 0.00 | 0.00 | 96 | 1011.6 |
| 20260505060037 | 18 | 45 | 1.6 | 6.4 | 0.00 | 0.00 | 0.00 | 95 | 1011.7 |
| 20260505055528 | 18 | 68 | 3.2 | 6.4 | 0.00 | 0.00 | 0.00 | 95 | 1011.9 |
| 20260505055017 | 18 | 45 | 3.2 | 6.4 | 0.00 | 0.00 | 0.00 | 95 | 1011.7 |
| 20260505054507 | 18 | 68 | 1.6 | 6.4 | 0.00 | 0.00 | 0.00 | 95 | 1011.7 |
| 20260505053956 | 18 | 90 | 3.2 | 6.4 | 0.00 | 0.00 | 0.00 | 95 | 1011.8 |
| 20260505052937 | 18 | 68 | 3.2 | 6.4 | 0.00 | 0.00 | 0.00 | 95 | 1011.6 |
| 20260505052427 | 18 | 45 | 0.0 | 6.4 | 0.00 | 0.00 | 0.00 | 95 | 1011.7 |
| 20260505051917 | 18 | 90 | 1.6 | 9.7 | 0.00 | 0.00 | 0.00 | 95 | 1011.7 |
| 20260505051406 | 18 | 23 | 3.2 | 9.7 | 0.00 | 0.00 | 0.00 | 95 | 1011.6 |
| 20260505050857 | 19 | 45 | 4.8 | 12.9 | 0.00 | 0.00 | 0.00 | 95 | 1011.5 |
| 20260505050347 | 19 | 23 | 4.8 | 12.9 | 0.00 | 0.00 | 0.00 | 95 | 1011.8 |
| 20260505041715 | 18 | 45 | 3.2 | 9.7 | 0.00 | 0.00 | 0.00 | 94 | 1011.9 |
| 20260505040655 | 19 | 45 | 3.2 | 6.4 | 0.00 | 0.00 | 0.00 | 94 | 1011.6 |
| 20260505035635 | 19 | 45 | 3.2 | 9.7 | 0.00 | 0.00 | 0.00 | 94 | 1011.9 |
| 20260505035124 | 19 | 45 | 3.2 | 9.7 | 0.00 | 0.00 | 0.00 | 94 | 1012.0 |
| 20260505034615 | 19 | 90 | 3.2 | 6.4 | 0.00 | 0.00 | 0.00 | 94 | 1012.0 |
| 20260505034104 | 19 | 45 | 1.6 | 11.3 | 0.00 | 0.00 | 0.00 | 94 | 1012.0 |
| 20260505033555 | 19 | 45 | 3.2 | 11.3 | 0.00 | 0.00 | 0.00 | 94 | 1012.2 |
| 20260505033044 | 19 | 0 | 1.6 | 9.7 | 0.00 | 0.00 | 0.00 | 94 | 1012.2 |
| 20260505032534 | 19 | 23 | 3.2 | 9.7 | 0.00 | 0.00 | 0.00 | 94 | 1012.0 |
| 20260505031517 | 19 | 68 | 3.2 | 12.9 | 0.00 | 0.00 | 0.00 | 94 | 1011.8 |
| 20260505031003 | 19 | 45 | 4.8 | 12.9 | 0.00 | 0.00 | 0.00 | 94 | 1011.9 |
| 20260505025943 | 19 | 45 | 6.4 | 17.7 | 0.00 | 0.00 | 0.00 | 93 | 1011.9 |
| 20260505025434 | 19 | 23 | 6.4 | 17.7 | 0.00 | 0.00 | 0.00 | 93 | 1011.9 |
| 20260505024926 | 19 | 23 | 6.4 | 17.7 | 0.00 | 0.00 | 0.00 | 93 | 1011.9 |
| 20260505024413 | 19 | 338 | 6.4 | 17.7 | 0.00 | 0.00 | 0.00 | 93 | 1011.8 |
| 20260505023904 | 19 | 23 | 6.4 | 17.7 | 0.00 | 0.00 | 0.00 | 93 | 1011.7 |
| 20260505022843 | 19 | 90 | 4.8 | 20.9 | 0.00 | 0.00 | 0.00 | 93 | 1011.6 |
| 20260505022333 | 19 | 45 | 3.2 | 14.5 | 0.00 | 0.00 | 0.00 | 93 | 1011.5 |
| 20260505021823 | 19 | 90 | 6.4 | 17.7 | 0.00 | 0.00 | 0.00 | 93 | 1011.6 |
| 20260505021312 | 19 | 0 | 8.0 | 17.7 | 0.00 | 0.00 | 0.00 | 92 | 1011.5 |
| 20260505020802 | 19 | 0 | 4.8 | 11.3 | 0.00 | 0.00 | 0.00 | 92 | 1011.4 |
| 20260505020252 | 19 | 0 | 3.2 | 14.5 | 0.00 | 0.00 | 0.00 | 92 | 1011.5 |
| 20260505015742 | 19 | 23 | 4.8 | 14.5 | 0.00 | 0.00 | 0.00 | 92 | 1011.2 |
| 20260505014213 | 19 | 113 | 3.2 | 17.7 | 0.00 | 0.00 | 0.00 | 92 | 1011.1 |
| 20260505013701 | 19 | 45 | 6.4 | 17.7 | 0.00 | 0.00 | 0.00 | 92 | 1011.1 |
| 20260505013151 | 19 | 45 | 6.4 | 17.7 | 0.00 | 0.00 | 0.00 | 91 | 1011.1 |
| 20260505012132 | 20 | 45 | 9.7 | 17.7 | 0.00 | 0.00 | 0.00 | 91 | 1011.1 |
| 20260505010601 | 20 | 23 | 4.8 | 12.9 | 0.00 | 0.00 | 0.00 | 90 | 1011.0 |
| 20260505010052 | 20 | 45 | 3.2 | 11.3 | 0.00 | 0.00 | 0.00 | 90 | 1011.0 |
| 20260505005541 | 19 | 338 | 6.4 | 11.3 | 0.00 | 0.00 | 0.00 | 90 | 1010.9 |
| 20260505005030 | 19 | 90 | 3.2 | 9.7 | 0.00 | 0.00 | 0.00 | 90 | 1010.9 |
| 20260505004521 | 19 | 45 | 1.6 | 9.7 | 0.00 | 0.00 | 0.00 | 89 | 1011.2 |
| 20260505004010 | 19 | 68 | 3.2 | 9.7 | 0.00 | 0.00 | 0.00 | 89 | 1011.2 |
| 20260505003500 | 19 | 23 | 1.6 | 6.4 | 0.00 | 0.00 | 0.00 | 89 | 1010.8 |
| 20260505002951 | 18 | 23 | 3.2 | 6.4 | 0.00 | 0.00 | 0.00 | 89 | 1010.8 |
| 20260505002440 | 18 | 23 | 3.2 | 6.4 | 0.00 | 0.00 | 0.00 | 88 | 1010.9 |
| 20260505001420 | 18 | 68 | 0.0 | 9.7 | 0.00 | 0.00 | 0.00 | 87 | 1011.0 |
| 20260505000910 | 18 | 113 | 3.2 | 6.4 | 0.00 | 0.00 | 0.00 | 87 | 1011.2 |
| 20260505000400 | 18 | 23 | 3.2 | 6.4 | 0.00 | 0.00 | 0.00 | 86 | 1011.3 |
| 20260504235849 | 18 | 113 | 1.6 | 6.4 | 0.00 | 0.00 | 0.00 | 86 | 1011.2 |
| 20260504235340 | 18 | 45 | 0.0 | 3.2 | 0.00 | 0.00 | 0.00 | 86 | 1011.0 |
| 20260504234830 | 18 | 90 | 3.2 | 3.2 | 0.00 | 0.00 | 0.00 | 86 | 1011.1 |
| 20260504234321 | 18 | 23 | 1.6 | 6.4 | 0.00 | 0.00 | 0.00 | 85 | 1011.3 |
| 20260504233809 | 18 | 68 | 0.0 | 6.4 | 0.00 | 0.00 | 0.00 | 84 | 1011.1 |
| 20260504233259 | 18 | 23 | 3.2 | 6.4 | 0.00 | 0.00 | 0.00 | 83 | 1010.9 |
| 20260504232749 | 19 | 45 | 3.2 | 6.4 | 0.00 | 0.00 | 0.00 | 83 | 1010.8 |
| 20260504231728 | 19 | 68 | 0.0 | 6.4 | 0.00 | 0.00 | 0.00 | 82 | 1010.7 |
| 20260504231218 | 19 | 90 | 3.2 | 6.4 | 0.00 | 0.00 | 0.00 | 82 | 1010.7 |
| 20260504230708 | 19 | 23 | 1.6 | 3.2 | 0.00 | 0.00 | 0.00 | 82 | 1010.5 |
| 20260504230159 | 20 | 45 | 0.0 | 3.2 | 0.00 | 0.00 | 0.00 | 81 | 1010.4 |
| 20260504225649 | 20 | 45 | 1.6 | 6.4 | 0.00 | 0.00 | 0.00 | 81 | 1010.2 |
| 20260504224628 | 20 | 68 | 1.6 | 3.2 | 0.00 | 0.00 | 0.00 | 80 | 1010.1 |
| 20260504224118 | 20 | 68 | 1.6 | 6.4 | 0.00 | 0.00 | 0.00 | 79 | 1010.1 |
| 20260504223608 | 20 | 90 | 0.0 | 6.4 | 0.00 | 0.00 | 0.00 | 78 | 1010.1 |
| 20260504223058 | 21 | 45 | 0.0 | 3.2 | 0.00 | 0.00 | 0.00 | 78 | 1010.0 |
| 20260504222037 | 21 | 68 | 1.6 | 3.2 | 0.00 | 0.00 | 0.00 | 77 | 1010.1 |
| 20260504221017 | 21 | 68 | 0.0 | 3.2 | 0.00 | 0.00 | 0.00 | 76 | 1009.9 |
| 20260504220507 | 21 | 68 | 1.6 | 3.2 | 0.00 | 0.00 | 0.00 | 76 | 1009.9 |
| 20260504215957 | 21 | 68 | 1.6 | 6.4 | 0.00 | 0.00 | 0.00 | 76 | 1009.9 |
| 20260504215446 | 21 | 23 | 0.0 | 6.4 | 0.00 | 0.00 | 0.00 | 75 | 1009.7 |
| 20260504214427 | 21 | 45 | 0.0 | 3.2 | 0.00 | 0.00 | 0.00 | 74 | 1009.6 |
| 20260504213407 | 22 | 68 | 3.2 | 6.4 | 0.00 | 0.00 | 0.00 | 73 | 1009.5 |
| 20260504212856 | 22 | 45 | 1.6 | 6.4 | 0.00 | 0.00 | 0.00 | 73 | 1009.5 |
| 20260504212346 | 22 | 68 | 1.6 | 6.4 | 0.00 | 0.00 | 0.00 | 72 | 1009.7 |
| 20260504211836 | 22 | 90 | 3.2 | 3.2 | 0.00 | 0.00 | 0.00 | 71 | 1009.6 |
| 20260504210816 | 22 | 68 | 1.6 | 6.4 | 0.00 | 0.00 | 0.00 | 71 | 1009.7 |
| 20260504210306 | 22 | 45 | 1.6 | 6.4 | 0.00 | 0.00 | 0.00 | 72 | 1009.8 |
| 20260504205245 | 22 | 45 | 3.2 | 6.4 | 0.00 | 0.00 | 0.00 | 71 | 1009.7 |
| 20260504204735 | 22 | 45 | 3.2 | 6.4 | 0.00 | 0.00 | 0.00 | 70 | 1009.8 |
| 20260504204225 | 22 | 23 | 3.2 | 6.4 | 0.00 | 0.00 | 0.00 | 70 | 1010.0 |
| 20260504203204 | 22 | 0 | 3.2 | 9.7 | 0.00 | 0.00 | 0.00 | 69 | 1009.9 |
| 20260504202655 | 22 | 23 | 3.2 | 9.7 | 0.00 | 0.00 | 0.00 | 69 | 1009.9 |
| 20260504202144 | 22 | 0 | 4.8 | 9.7 | 0.00 | 0.00 | 0.00 | 68 | 1010.0 |
| 20260504201635 | 22 | 45 | 1.6 | 9.7 | 0.00 | 0.00 | 0.00 | 68 | 1010.0 |
| 20260504201124 | 23 | 23 | 6.4 | 9.7 | 0.00 | 0.00 | 0.00 | 68 | 1010.1 |
| 20260504200104 | 23 | 68 | 3.2 | 11.3 | 0.00 | 0.00 | 0.00 | 66 | 1010.0 |
| 20260504195044 | 23 | 45 | 6.4 | 12.9 | 0.00 | 0.00 | 0.00 | 66 | 1010.1 |
| 20260504194534 | 23 | 45 | 6.4 | 12.9 | 0.00 | 0.00 | 0.00 | 65 | 1010.1 |
| 20260504194024 | 23 | 0 | 4.8 | 17.7 | 0.00 | 0.00 | 0.00 | 65 | 1010.2 |
| 20260504193514 | 24 | 90 | 6.4 | 17.7 | 0.00 | 0.00 | 0.00 | 62 | 1010.2 |